Date String (YYYY-MM-DD hh:mm:ss) UTC,Instrument flags,Ambient pressure (hPa),Sample flow (lpm),Bypass flow (lpm),Sample temperature (°C),Ambient temperature (°C),ASC tube jacket temperature (°C),LED temperature (°C),Box temperature (°C),Sample RH (%),Span deviation,Mass concentration (μg/m³),Mass concentration (μg/m³),Mass concentration (μg/m³)
DateTimeUTC,F1_M11,P_M11,Q1_M11,Q2_M11,T1_M11,T2_M11,T3_M11,T4_M11,T5_M11,U1_M11,ZSPAN_M11,X0_M11,X2_M11,X1_M11
2023-01-05 23:00:00,,0823.3,4.98,0.00,23.2,21.7,00.0,32.1,25.0,08.4,0000.3,0013.38,0009.29,0008.80
2023-01-05 23:01:00,,0823.4,5.01,0.00,23.2,21.8,00.0,32.0,25.0,08.4,0001.0,0013.67,0009.15,0008.69
2023-01-05 23:02:00,,0823.4,5.00,0.00,23.2,21.8,00.0,32.0,25.0,08.3,0000.0,0013.53,0009.01,0008.59
2023-01-05 23:03:00,,0823.3,5.00,0.00,23.2,21.9,00.0,32.0,25.0,08.0,0000.0,0012.53,0008.76,0008.35
2023-01-05 23:04:00,,0823.4,5.00,0.00,23.2,21.9,00.0,32.0,25.0,07.9,0000.0,0012.23,0008.53,0008.15
2023-01-05 23:05:00,,0823.2,5.00,0.00,23.2,22.0,00.0,32.0,25.0,07.9,0000.0,0011.82,0008.17,0007.82
2023-01-05 23:06:00,,0823.2,5.01,0.00,23.2,22.0,00.0,32.0,25.0,07.9,0000.0,0011.39,0007.88,0007.55
2023-01-05 23:07:00,,0823.2,5.00,0.00,23.3,22.0,00.0,32.0,25.1,07.9,0000.0,0011.17,0007.75,0007.44
2023-01-05 23:08:00,,0823.3,4.99,0.00,23.3,22.0,00.0,32.1,25.1,07.9,0000.0,0011.11,0007.68,0007.36
2023-01-05 23:09:00,,0823.4,5.00,0.00,23.3,22.0,00.0,32.1,25.1,07.9,0000.0,0011.47,0007.56,0007.25
2023-01-05 23:10:00,,0823.3,5.01,0.00,23.3,22.0,00.0,32.1,25.1,07.9,0000.0,0011.72,0007.35,0007.05
2023-01-05 23:11:00,,0823.3,5.01,0.00,23.3,22.1,00.0,32.1,25.1,07.9,0000.0,0011.67,0007.14,0006.83
2023-01-05 23:12:00,,0823.3,4.99,0.00,23.3,22.1,00.0,32.1,25.1,08.1,0000.0,0010.96,0006.98,0006.66
2023-01-05 23:13:00,,0823.3,5.00,0.00,23.3,22.1,00.0,32.1,25.1,08.3,0000.0,0010.91,0006.92,0006.59
2023-01-05 23:14:00,,0823.3,5.01,0.00,23.3,22.1,00.0,32.1,25.1,08.3,0000.0,0011.03,0007.00,0006.66
2023-01-05 23:15:00,,0823.3,5.01,0.00,23.3,22.1,00.0,32.1,25.1,08.2,0000.0,0011.29,0007.17,0006.82
2023-01-05 23:16:00,,0823.2,5.00,0.00,23.3,22.1,00.0,32.1,25.1,08.1,0000.0,0011.45,0007.33,0007.00
2023-01-05 23:17:00,,0823.2,5.00,0.00,23.3,22.1,00.0,32.1,25.1,08.1,0000.0,0011.61,0007.47,0007.12
2023-01-05 23:18:00,,0823.2,5.00,0.00,23.3,22.1,00.0,32.1,25.1,08.1,0000.0,0011.72,0007.54,0007.19
2023-01-05 23:19:00,,0823.1,5.00,0.00,23.3,22.1,00.0,32.1,25.1,08.0,0000.0,0011.91,0007.55,0007.22
2023-01-05 23:20:00,,0823.1,5.00,0.00,23.3,22.1,00.0,32.1,25.1,07.9,0000.0,0012.18,0007.56,0007.22
2023-01-05 23:21:00,,0823.2,5.02,0.00,23.3,22.1,00.0,32.1,25.1,07.9,0000.0,0011.86,0007.54,0007.19
2023-01-05 23:22:00,,0823.1,5.00,0.00,23.3,22.1,00.0,32.1,25.1,07.9,0000.0,0011.51,0007.51,0007.18
2023-01-05 23:23:00,,0823.1,5.01,0.00,23.3,22.1,00.0,32.1,25.1,07.9,0000.0,0011.56,0007.48,0007.15
2023-01-05 23:24:00,,0823.1,5.01,0.00,23.4,22.1,00.0,32.1,25.1,08.0,0000.0,0012.31,0007.40,0007.07
2023-01-05 23:25:00,,0823.2,5.01,0.00,23.4,22.1,00.0,32.1,25.1,08.0,0000.0,0012.43,0007.30,0006.97
2023-01-05 23:26:00,,0823.2,5.00,0.00,23.3,22.0,00.0,32.1,25.1,08.0,0000.0,0012.36,0007.20,0006.84
2023-01-05 23:27:00,,0823.0,5.00,0.00,23.3,22.0,00.0,32.1,25.1,08.0,0000.0,0012.33,0007.10,0006.72
2023-01-05 23:28:00,,0823.0,5.00,0.00,23.3,21.9,00.0,32.1,25.0,08.0,0000.0,0012.29,0007.00,0006.62
2023-01-05 23:29:00,,0823.0,5.00,0.00,23.3,21.7,00.0,32.1,25.0,08.0,0000.0,0013.32,0006.97,0006.57
2023-01-05 23:30:00,,0823.0,5.01,0.00,23.2,21.5,00.0,32.1,25.0,08.1,0000.0,0013.36,0006.98,0006.57
2023-01-05 23:31:00,,0823.0,5.00,0.00,23.2,21.5,00.0,32.1,24.9,08.3,0000.0,0013.04,0007.09,0006.66
2023-01-05 23:32:00,,0823.0,4.99,0.00,23.2,21.6,00.0,32.1,24.9,08.4,0000.0,0013.07,0007.25,0006.83
2023-01-05 23:33:00,,0823.0,5.00,0.00,23.2,21.6,00.0,32.1,24.9,08.3,0000.0,0013.70,0007.40,0006.93
2023-01-05 23:34:00,,0823.1,5.01,0.00,23.2,21.7,00.0,32.1,25.0,08.2,0000.0,0013.99,0007.47,0006.99
2023-01-05 23:35:00,,0823.2,4.99,0.00,23.2,21.8,00.0,32.1,25.0,08.1,0000.0,0013.32,0007.47,0006.99
2023-01-05 23:36:00,,0823.2,5.00,0.00,23.2,21.8,00.0,32.0,25.0,08.1,0000.0,0013.00,0007.46,0006.98
2023-01-05 23:37:00,,0823.1,5.01,0.00,23.2,21.8,00.0,32.0,25.0,08.2,0000.0,0012.91,0007.48,0007.02
2023-01-05 23:38:00,,0823.2,5.00,0.00,23.1,21.6,00.0,32.0,24.9,08.6,0000.0,0013.07,0007.69,0007.25
2023-01-05 23:39:00,,0823.2,5.01,0.00,23.1,21.4,00.0,32.0,24.8,08.6,0000.0,0013.76,0007.95,0007.51
2023-01-05 23:40:00,,0823.1,5.01,0.00,23.1,21.3,00.0,32.0,24.7,08.6,0000.3,0012.96,0008.18,0007.74
2023-01-05 23:41:00,,0823.1,5.00,0.00,23.0,21.3,00.0,32.0,24.7,08.6,0000.3,0012.98,0008.34,0007.90
2023-01-05 23:42:00,,0823.2,4.99,0.00,23.0,21.3,00.0,32.0,24.7,08.5,0000.0,0012.95,0008.38,0007.95
2023-01-05 23:43:00,,0823.3,5.00,0.00,23.0,21.3,00.0,31.9,24.7,08.6,0000.0,0012.98,0008.40,0007.93
2023-01-05 23:44:00,,0823.2,5.00,0.00,23.0,21.4,00.0,31.9,24.8,08.6,0000.0,0012.57,0008.39,0007.94
2023-01-05 23:45:00,,0823.2,5.00,0.00,23.0,21.4,00.0,31.9,24.8,08.6,0000.0,0012.82,0008.48,0008.01
2023-01-05 23:46:00,,0823.1,5.00,0.00,23.0,21.4,00.0,31.9,24.7,08.8,0000.0,0012.88,0008.58,0008.08
2023-01-05 23:47:00,,0823.0,4.99,0.00,22.9,21.3,00.0,31.9,24.7,08.8,0000.0,0013.91,0008.71,0008.16
2023-01-05 23:48:00,,0823.0,5.00,0.00,22.9,21.2,00.0,31.9,24.7,08.9,0000.7,0014.67,0008.79,0008.21
2023-01-05 23:49:00,,0823.0,4.99,0.00,22.9,21.3,00.0,31.9,24.7,09.1,0002.2,0014.54,0008.71,0008.13
2023-01-05 23:50:00,,0823.0,5.00,0.00,22.9,21.3,00.0,31.8,24.7,09.2,0000.2,0014.65,0008.65,0008.05
2023-01-05 23:51:00,,0823.1,4.99,0.00,22.9,21.4,00.0,31.8,24.7,09.2,0000.7,0015.24,0008.62,0008.02
2023-01-05 23:52:00,,0823.2,5.00,0.00,22.9,21.4,00.0,31.8,24.8,09.3,0000.0,0015.42,0008.66,0008.03
2023-01-05 23:53:00,,0823.2,5.00,0.00,22.9,21.5,00.0,31.8,24.7,09.3,0000.0,0015.98,0008.77,0008.12
2023-01-05 23:54:00,,0823.2,5.00,0.00,22.9,21.5,00.0,31.8,24.8,09.4,0000.0,0016.16,0008.84,0008.22
2023-01-05 23:55:00,,0823.3,5.00,0.00,22.9,21.5,00.0,31.8,24.8,09.6,0000.0,0016.88,0008.97,0008.36
2023-01-05 23:56:00,,0823.2,5.00,0.00,22.9,21.5,00.0,31.8,24.8,09.6,0000.0,0017.00,0009.09,0008.48
2023-01-05 23:57:00,,0823.2,4.99,0.00,22.9,21.5,00.0,31.8,24.8,09.7,0000.4,0017.72,0009.22,0008.62
2023-01-05 23:58:00,,0823.1,5.00,0.00,22.9,21.5,00.0,31.8,24.8,09.8,0001.0,0017.27,0009.34,0008.80
2023-01-05 23:59:00,,0823.1,4.99,0.00,22.9,21.5,00.0,31.8,24.8,09.8,0001.5,0017.49,0009.53,0008.97
